Tracking 21612 objects as of 19-Oct-2020
HD Live streaming from Space Station
objects crossing your sky now

BREEZE-M DEB (TANK)

Track BREEZE-M DEB (TANK) now!
10-day predictions


NORAD ID: 36501
Int'l Code: 2010-010C
Perigee: 329.3 km
Apogee: 13,103.8 km
Inclination: 49.7 °
Period: 248.3 minutes
Semi major axis: 13087 km
RCS: 5.0119 m2 (large)
Launch date: March 20, 2010
Source: Commonwealth of Independent States (former USSR) (CIS)
Launch site: TYURATAM MISSILE AND SPACE COMPLEX (TTMTR)

Note: This is SATELLITE DEBRIS
aabbcc
Your satellite tracking list
Your tracking list is empty




NASA's NSSDC Master Catalog

Two Line Element Set (TLE):
1 36501U 10010C   20292.51789051  .00001163  00000-0  25923-3 0  9993
2 36501  49.6508 287.2908 4880422   1.0159 359.6975  5.79849840221349
Source of the keplerian elements: AFSPC